Andalusia, AL

12:39 PM CDT on May 26, 2017 (GMT -0500)
Andalusia

Weather History for K79J - September, 2013

Change the Weather History Date:

Wednesday, September 11, 2013

  Actual Average (KCEW) Record (KCEW)
Temperature  
Mean Temperature 82 °F -  
Max Temperature 91 °F 91 °F 97 °F (2002)
Min Temperature 72 °F 67 °F 55 °F (1976)
Cooling Degree Days 16    
Growing Degree Days 32 (Base 50)    
Moisture  
Dew Point 69 °F    
Average Humidity 69    
Maximum Humidity 91    
Minimum Humidity 42    
Precipitation  
Precipitation 0.00 in - - ()
Sea Level Pressure  
Sea Level Pressure 30.11 in    
Wind  
Wind Speed 3 mph (ESE)    
Max Wind Speed 13 mph    
Max Gust Speed 17 mph    
Visibility 10 miles    
Events      
Averages and records for this station are not official NWS values.
T = Trace of Precipitation, MM = Missing Value Source: NWS Daily Summary

Daily Weather History Graph

Daily Weather History Graph

Search for Another Location

Airport or City:

Trip Planner

Search our weather history database for the weather conditions in past years. The results will help you decide how hot, cold, wet, or windy it might be!

Date:

Astronomy

Sep. 11, 2013 Rise Set
Actual Time 6:27 AM CDT 6:56 PM CDT
Civil Twilight 6:03 AM CDT 7:20 PM CDT
Nautical Twilight 5:34 AM CDT 7:49 PM CDT
Astronomical Twilight 5:05 AM CDT 8:18 PM CDT
Moon 12:30 PM CDT (9/11) 11:16 PM CDT (9/11)
Length of Visible Light 13h 17m
Length of Day
12h 28m
Waxing Crescent, 39% of the Moon is Illuminated
Sep 11
Waxing Crescent
Sep 12
First Quarter
Sep 19
Full
Sep 26
Last Quarter
Oct 4
New

Hourly Weather History & Observations

Time (CDT) Temp. Heat Index Dew Point Humidity Pressure Visibility Wind Dir Wind Speed Gust Speed Precip Events Conditions
12:56 AM 73.9 °F - 69.1 °F 85% 30.11 in 10.0 mi Calm Calm - N/A   Clear
1:56 AM 73.9 °F - 69.1 °F 85% 30.11 in 10.0 mi Calm Calm - N/A   Clear
2:56 AM 73.0 °F - 69.1 °F 87% 30.11 in 10.0 mi SE 3.5 mph - N/A   Clear
3:56 AM 73.0 °F - 69.1 °F 87% 30.11 in 10.0 mi Calm Calm - N/A   Scattered Clouds
4:56 AM 72.0 °F - 69.1 °F 91% 30.12 in 10.0 mi ESE 3.5 mph - N/A   Clear
5:56 AM 72.0 °F - 68.0 °F 87% 30.13 in 10.0 mi ESE 3.5 mph - N/A   Clear
6:56 AM 72.0 °F - 68.0 °F 87% 30.15 in 10.0 mi ESE 3.5 mph - N/A   Clear
7:56 AM 75.9 °F - 70.0 °F 82% 30.16 in 10.0 mi ESE 6.9 mph - N/A   Clear
8:56 AM 81.0 °F 84.9 °F 71.1 °F 72% 30.16 in 10.0 mi ESE 9.2 mph - N/A   Clear
9:56 AM 84.0 °F 88.4 °F 70.0 °F 63% 30.17 in 10.0 mi East 8.1 mph - N/A   Partly Cloudy
10:56 AM 87.1 °F 91.3 °F 69.1 °F 55% 30.16 in 10.0 mi SE 11.5 mph - N/A   Partly Cloudy
11:56 AM 89.1 °F 92.9 °F 68.0 °F 50% 30.14 in 10.0 mi ESE 8.1 mph 17.3 mph N/A   Scattered Clouds
12:56 PM 90.0 °F 92.4 °F 66.0 °F 45% 30.13 in 10.0 mi SE 12.7 mph - N/A   Partly Cloudy
1:56 PM 90.0 °F 91.7 °F 64.9 °F 43% 30.11 in 10.0 mi ESE 10.4 mph - N/A   Clear
2:56 PM 91.0 °F 93.8 °F 66.0 °F 44% 30.08 in 10.0 mi East 10.4 mph - N/A   Clear
3:56 PM 91.9 °F 94.5 °F 66.0 °F 42% 30.07 in 10.0 mi ESE 6.9 mph - N/A   Partly Cloudy
4:56 PM 89.1 °F 91.3 °F 66.0 °F 46% 30.06 in 10.0 mi ESE 6.9 mph - N/A   Partly Cloudy
5:56 PM 88.0 °F 90.7 °F 66.9 °F 49% 30.06 in 10.0 mi Calm Calm - N/A   Clear
6:56 PM 82.0 °F 86.3 °F 71.1 °F 69% 30.06 in 10.0 mi Calm Calm - N/A   Clear
7:56 PM 80.1 °F 83.6 °F 71.1 °F 74% 30.06 in 10.0 mi Calm Calm - N/A   Scattered Clouds
8:56 PM 79.0 °F - 72.0 °F 79% 30.07 in 10.0 mi Calm Calm - N/A   Clear
9:56 PM 78.1 °F - 70.0 °F 76% 30.08 in 10.0 mi Calm Calm - N/A   Clear
10:56 PM 77.0 °F - 70.0 °F 79% 30.08 in 10.0 mi Calm Calm - N/A   Clear
11:56 PM 75.9 °F - 70.0 °F 82% 30.06 in 10.0 mi Calm Calm - N/A   Clear